Temp
67 67 62 63 63 63 60 56 56 60 64 60 61 60 65 70 68 69 71 69 68 69 71 72 72 73 72 71 70 69 69 69 69 76 77 73 73 75 77 80 81 81 80 79
65 62 67 65 63 60 59 56 57 59 62 60 60 59 65 67 67 67 68 67 67 68 69 70 71 71 70 70 69 69 69 69 70 72 78 80 80 82 83 82 78 80 80 79
61 66 66 63 61 58 58 55 54 53 59 60 56 58 59 64 65 67 67 67 67 67 66 68 69 69 70 69 68 68 68 68 70 70 73 75 76 77 76 78 76 77 80 80
62 65 63 61 58 59 53 59 56 55 53 48 55 47 54 59 62 64 65 65 67 67 68 68 69 69 68 68 70 69 68 67 70 70 71 71 74 76 80 81 82 81 80 80
60 61 60 58 57 60 56 58 56 54 50 47 49 46 54 54 57 61 64 65 67 67 67 67 67 67 68 69 70 69 67 66 67 67 68 71 71 76 80 81 78 78 79 79
61 65 62 60 60 59 58 56 56 48 48 42 45 44 49 55 57 61 63 66 66 67 68 68 69 69 69 69 69 68 67 65 65 66 67 67 68 70 74 75 76 79 80 80
57 58 62 63 57 60 57 52 40 40 39 41 47 44 50 58 60 62 64 66 67 68 67 67 67 67 66 66 65 66 64 63 64 64 65 66 66 69 69 72 76 76 78 77
47 47 57 61 58 53 52 50 39 30 35 42 50 40 51 60 62 62 63 64 67 67 68 66 66 65 65 64 64 62 62 62 63 63 63 64 66 71 73 73 75 77 78 79
47 46 60 62 60 58 49 44 49 39 40 36 45 48 54 61 60 62 63 64 64 65 66 65 65 64 63 63 64 63 62 62 62 62 63 63 65 67 70 71 72 75 76 78
53 42 55 56 58 57 53 55 40 40 28 31 45 44 46 54 58 62 62 62 63 64 63 63 64 63 63 64 63 63 62 61 62 63 63 64 63 66 69 71 72 73 75 76
54 44 49 52 52 52 50 46 45 44 41 33 34 44 56 56 59 59 61 62 62 61 61 62 63 64 63 63 63 62 62 61 61 62 62 62 63 64 68 69 72 74 75 76
53 47 42 47 58 56 54 50 50 36 38 36 39 39 61 60 61 59 60 62 60 60 62 63 63 63 61 61 60 60 60 60 61 62 61 61 62 63 65 69 71 74 74 75
53 42 35 44 48 50 48 49 50 48 43 36 32 39 59 59 59 59 56 57 57 58 60 61 61 59 59 58 58 58 59 60 61 61 61 61 61 62 63 67 68 72 74 74
55 47 42 37 44 50 45 48 51 45 33 38 40 44 52 55 55 56 54 55 56 57 58 58 58 57 57 57 57 56 57 58 59 60 59 59 60 61 62 66 68 70 75 72
51 42 46 47 47 47 46 46 48 44 45 35 42 44 50 52 50 52 53 53 54 55 55 55 55 56 56 56 55 54 54 55 57 57 57 57 60 61 63 66 69 70 70 68
50 41 45 41 47 47 43 47 47 47 46 44 45 44 53 52 53 51 51 51 52 53 54 54 54 53 53 53 51 50 52 53 55 55 56 59 59 61 62 66 68 68 69 69
45 43 39 36 45 44 37 44 45 46 48 42 34 47 51 47 46 47 48 51 51 52 52 51 49 49 50 49 49 48 50 52 52 54 56 58 59 60 62 65 67 65 64 65
44 41 40 36 41 30 46 53 49 43 46 49 49 48 45 45 48 51 53 53 51 51 48 47 49 48 48 49 48 49 50 50 51 52 56 58 59 60 62 62 61 61 61 61
49 43 36 33 34 40 46 44 36 34 37 48 43 42 47 45 47 48 56 54 50 48 48 48 48 47 47 47 48 47 47 49 49 51 55 58 59 59 60 60 58 57 56 55
47 47 39 38 29 27 43 46 51 49 33 46 43 42 42 42 34 45 51 50 47 47 46 45 47 48 46 46 47 45 46 47 49 53 56 58 58 59 57 58 55 53 54 53
41 42 37 37 33 39 50 48 51 32 35 44 44 41 40 38 43 46 48 46 47 45 45 46 45 44 45 47 46 44 46 47 50 55 58 57 58 58 57 54 52 50 50 50
37 32 34 35 31 29 50 48 33 40 42 42 41 43 42 44 46 45 44 42 43 43 43 43 42 42 44 44 43 43 45 49 53 54 57 57 58 59 55 52 50 49 47 46
35 40 35 36 39 50 52 47 49 45 43 43 38 45 45 44 42 42 40 41 41 40 41 41 40 40 41 43 44 44 47 53 52 56 56 57 58 56 52 50 48 47 47 45
44 47 36 38 47 47 49 48 47 51 45 44 46 46 44 39 39 39 39 39 39 40 40 40 39 39 39 42 45 46 49 53 52 55 56 57 56 51 51 50 49 48 47 45
44 44 40 38 45 45 45 45 50 48 45 45 45 43 40 40 38 38 37 38 39 39 39 38 38 39 40 43 45 48 50 53 52 51 55 55 51 50 48 47 48 49 48 47
46 40 34 34 41 40 43 49 51 45 44 42 40 40 40 39 37 38 37 38 38 38 39 39 40 41 42 44 46 49 52 52 51 50 52 49 47 47 46 44 41 39 42 42
MSLP
1013.77 1013.63 1013.58 1013.88 1014.11 1014.31 1014.44 1014.48 1014.25 1014.13 1014.11 1013.98 1012.94 1012.43 1011.83 1011.32 1011.20 1010.83 1011.02 1011.67 1012.13 1012.39 1012.75 1012.71 1012.59 1012.40 1012.16 1011.80 1011.43 1011.08 1010.37 1009.91 1009.43 1008.50 1008.13 1008.31 1008.13 1008.21 1008.32 1008.29 1008.12 1008.68 1009.15 1009.53
1013.92 1013.41 1013.43 1013.92 1014.23 1014.48 1014.59 1014.54 1014.38 1014.59 1014.54 1014.36 1013.02 1011.87 1011.49 1011.06 1010.90 1011.11 1011.14 1011.57 1012.02 1012.31 1012.47 1012.56 1012.52 1012.37 1012.15 1011.95 1011.67 1011.18 1010.79 1010.23 1009.68 1009.06 1007.91 1007.53 1007.49 1007.12 1006.88 1007.26 1007.78 1008.00 1008.46 1008.75
1013.55 1013.19 1013.63 1013.96 1014.20 1014.52 1014.69 1014.73 1014.91 1015.13 1014.82 1014.50 1013.64 1011.61 1011.34 1011.25 1011.25 1011.22 1011.46 1011.77 1012.01 1012.24 1012.39 1012.48 1012.45 1012.31 1012.15 1011.85 1011.67 1011.33 1010.97 1010.62 1010.01 1009.30 1008.48 1007.67 1007.57 1007.33 1007.10 1007.06 1007.42 1007.56 1007.73 1007.95
1013.66 1013.72 1013.81 1013.96 1014.31 1014.80 1014.78 1015.13 1015.46 1015.41 1015.24 1014.28 1014.55 1011.91 1011.69 1011.41 1011.20 1011.13 1011.42 1011.71 1011.95 1012.08 1012.33 1012.41 1012.28 1012.22 1012.15 1011.97 1011.71 1011.36 1011.03 1010.79 1010.25 1009.85 1008.83 1007.98 1007.23 1006.45 1006.06 1006.07 1006.06 1006.35 1006.76 1007.13
1013.92 1014.02 1014.13 1014.25 1014.74 1015.14 1015.22 1015.66 1015.74 1015.62 1015.51 1015.39 1014.62 1014.00 1011.83 1011.95 1011.13 1010.79 1011.02 1011.27 1011.60 1011.99 1012.25 1012.24 1012.27 1012.25 1012.19 1011.93 1011.69 1011.26 1011.00 1010.51 1010.15 1009.70 1009.24 1008.24 1007.44 1006.58 1005.93 1005.68 1005.88 1005.98 1006.36 1006.54
1014.61 1014.73 1014.69 1014.75 1015.19 1015.57 1015.98 1015.98 1015.74 1016.34 1015.97 1015.18 1014.63 1014.32 1011.83 1011.31 1011.00 1010.74 1010.87 1010.92 1011.22 1011.57 1011.85 1011.98 1012.09 1012.06 1011.87 1011.69 1011.39 1011.02 1010.74 1010.68 1010.11 1009.70 1009.26 1008.48 1007.67 1006.88 1006.03 1005.64 1005.50 1005.41 1005.59 1006.14
1015.32 1015.04 1015.05 1015.15 1015.27 1015.71 1016.10 1016.26 1016.07 1015.95 1015.74 1014.89 1014.89 1014.06 1011.77 1011.19 1011.07 1010.80 1010.69 1010.83 1011.10 1011.37 1011.57 1011.77 1011.85 1011.90 1011.83 1011.67 1011.52 1011.06 1010.65 1010.17 1009.71 1009.31 1009.09 1008.15 1007.52 1006.75 1005.91 1005.29 1004.80 1004.88 1005.01 1005.41
1015.99 1015.27 1015.40 1015.56 1015.74 1015.99 1016.46 1016.98 1017.55 1017.06 1016.03 1015.11 1014.73 1013.00 1011.23 1010.84 1010.77 1010.78 1010.91 1010.97 1010.99 1011.14 1011.46 1011.79 1011.93 1011.95 1012.03 1012.02 1011.64 1011.07 1010.43 1010.00 1009.80 1009.29 1008.73 1007.98 1007.15 1006.09 1005.32 1004.80 1004.45 1004.27 1004.23 1004.29
1016.59 1016.20 1015.83 1015.74 1016.01 1016.34 1016.95 1017.46 1018.05 1017.78 1017.40 1016.22 1013.55 1012.59 1011.83 1010.64 1010.42 1010.52 1010.62 1010.75 1010.76 1011.06 1011.36 1011.65 1011.71 1011.85 1011.91 1011.68 1011.14 1010.90 1010.66 1010.19 1009.54 1008.80 1008.31 1007.73 1007.06 1005.99 1004.98 1004.45 1004.15 1003.69 1003.69 1003.89
1017.41 1016.80 1016.17 1016.18 1016.34 1016.53 1016.77 1017.23 1018.07 1018.39 1017.38 1015.12 1012.25 1011.74 1010.58 1010.24 1009.95 1010.04 1010.32 1010.41 1010.63 1011.01 1011.29 1011.67 1011.65 1011.51 1011.42 1011.04 1010.58 1010.43 1010.20 1009.68 1009.15 1008.49 1007.77 1007.06 1006.66 1005.75 1004.69 1003.96 1003.43 1003.15 1002.98 1003.23
1017.84 1018.26 1016.94 1016.83 1015.94 1015.70 1016.73 1017.01 1017.62 1017.98 1017.26 1015.45 1013.06 1010.56 1010.47 1010.20 1010.06 1010.16 1010.28 1010.70 1010.91 1011.12 1011.31 1011.34 1011.21 1010.94 1010.63 1010.36 1010.18 1009.91 1009.68 1009.33 1008.74 1008.17 1007.60 1006.90 1006.04 1005.40 1004.30 1003.56 1002.82 1002.43 1002.55 1002.75
1018.19 1018.28 1017.11 1016.32 1015.43 1015.93 1016.13 1016.20 1016.65 1017.00 1016.08 1015.85 1013.97 1010.51 1010.67 1010.21 1010.13 1010.70 1010.75 1010.71 1011.31 1011.40 1011.22 1010.95 1010.67 1010.41 1010.23 1010.05 1009.84 1009.66 1009.33 1008.89 1008.26 1007.70 1007.14 1006.56 1005.92 1005.15 1003.97 1002.91 1002.33 1001.95 1002.06 1002.48
1018.45 1018.53 1017.57 1015.72 1015.98 1016.14 1015.96 1016.13 1016.18 1016.23 1016.30 1014.79 1013.78 1010.86 1010.62 1010.59 1010.46 1010.93 1011.31 1011.54 1011.59 1011.30 1010.80 1010.55 1010.22 1010.07 1009.98 1009.92 1009.78 1009.48 1009.10 1008.60 1008.03 1007.52 1006.88 1006.14 1005.53 1004.82 1003.73 1002.67 1002.11 1001.47 1001.75 1002.24
1018.46 1018.28 1017.74 1016.90 1015.81 1015.93 1015.66 1015.58 1015.46 1015.75 1015.61 1014.17 1012.68 1011.51 1010.61 1010.85 1010.89 1011.33 1012.02 1012.02 1011.80 1011.31 1010.85 1010.42 1010.11 1009.76 1009.66 1009.56 1009.42 1009.15 1008.82 1008.51 1007.85 1007.16 1006.53 1005.74 1005.15 1004.43 1003.58 1002.58 1002.01 1001.74 1001.12 1001.79
1018.50 1017.95 1017.72 1017.31 1016.54 1015.95 1015.37 1014.74 1014.20 1014.71 1014.30 1014.22 1012.36 1011.85 1011.17 1011.40 1011.94 1012.24 1012.44 1012.17 1011.65 1011.08 1010.69 1010.51 1010.22 1009.79 1009.55 1009.24 1009.05 1009.00 1008.60 1008.15 1007.53 1006.87 1006.06 1005.35 1004.83 1004.11 1003.28 1002.40 1001.78 1001.63 1001.80 1001.78
1019.21 1018.26 1017.83 1016.92 1016.17 1015.48 1014.95 1014.32 1013.94 1013.88 1013.63 1013.53 1013.17 1012.00 1012.12 1012.50 1012.63 1012.53 1012.39 1012.13 1011.34 1010.78 1010.42 1010.16 1010.02 1009.79 1009.49 1009.03 1008.92 1008.79 1008.21 1007.75 1007.18 1006.44 1005.52 1004.90 1004.42 1003.65 1002.85 1002.13 1001.75 1001.69 1001.51 1001.32
1019.50 1018.79 1018.15 1016.49 1016.27 1015.58 1014.57 1013.94 1014.16 1014.05 1014.01 1014.03 1013.51 1012.60 1012.75 1012.78 1012.94 1012.78 1012.25 1011.70 1011.00 1010.55 1010.31 1010.05 1009.88 1009.55 1009.18 1008.79 1008.64 1008.28 1007.88 1007.40 1006.63 1005.89 1005.04 1004.41 1003.95 1003.26 1002.48 1001.89 1001.67 1001.62 1001.56 1001.31
1019.16 1019.20 1018.88 1017.26 1016.58 1014.98 1014.13 1014.07 1014.42 1014.53 1014.33 1014.04 1013.40 1013.39 1013.77 1013.34 1012.60 1012.42 1012.08 1011.15 1010.75 1010.52 1010.33 1009.99 1009.60 1009.08 1008.72 1008.45 1008.12 1007.73 1007.38 1006.78 1006.01 1005.28 1004.50 1003.95 1003.50 1002.85 1002.29 1001.91 1001.95 1002.03 1002.02 1001.92
1019.26 1019.29 1019.04 1018.14 1016.81 1015.47 1013.91 1014.71 1015.31 1015.44 1014.15 1014.02 1014.13 1014.40 1013.68 1012.96 1011.88 1011.52 1011.07 1011.08 1010.88 1010.33 1009.89 1009.45 1009.01 1008.49 1008.07 1007.94 1007.61 1007.16 1006.65 1006.13 1005.36 1004.65 1003.92 1003.49 1003.13 1002.68 1002.24 1001.97 1002.27 1002.49 1002.59 1002.72
1019.40 1019.38 1019.31 1018.18 1017.40 1015.48 1014.37 1015.14 1015.50 1015.20 1014.15 1014.45 1014.84 1014.50 1013.63 1012.92 1011.41 1009.32 1010.41 1010.74 1010.26 1010.01 1009.68 1009.12 1008.39 1007.70 1007.32 1007.05 1006.80 1006.32 1005.78 1005.38 1004.59 1004.05 1003.35 1003.10 1002.87 1002.58 1002.33 1002.09 1002.61 1002.97 1003.30 1003.49
1019.05 1018.80 1018.66 1018.11 1017.40 1015.64 1014.66 1015.27 1015.30 1015.30 1015.18 1014.93 1014.90 1014.32 1013.74 1012.94 1012.36 1009.87 1010.04 1009.76 1009.78 1009.42 1008.91 1008.46 1007.81 1006.89 1006.38 1006.13 1005.87 1005.34 1004.94 1004.47 1003.88 1003.34 1002.85 1002.70 1002.54 1002.47 1002.39 1002.39 1003.03 1003.57 1004.07 1004.38
1019.49 1019.52 1019.07 1018.63 1017.31 1015.67 1015.53 1015.61 1016.55 1016.02 1015.43 1015.14 1014.56 1013.82 1013.23 1012.52 1011.54 1010.81 1009.84 1009.20 1008.69 1008.23 1007.64 1007.45 1006.74 1006.05 1005.50 1005.36 1005.00 1004.38 1004.06 1003.49 1003.01 1002.58 1002.32 1002.26 1002.24 1002.29 1002.44 1002.76 1003.60 1004.14 1004.73 1005.43
1019.66 1019.69 1019.75 1019.40 1016.95 1015.75 1015.69 1015.82 1015.85 1015.59 1014.93 1014.30 1014.02 1013.69 1013.05 1012.09 1011.24 1010.53 1009.76 1009.13 1008.71 1008.09 1007.29 1006.72 1006.10 1005.29 1004.74 1004.35 1003.97 1003.30 1002.93 1002.49 1002.24 1001.76 1001.72 1001.84 1001.85 1002.20 1002.57 1003.07 1003.89 1004.44 1005.08 1005.58
1019.45 1019.53 1019.65 1018.96 1016.25 1016.17 1015.81 1015.76 1015.61 1014.99 1014.58 1014.48 1014.14 1013.38 1012.74 1011.96 1011.15 1010.06 1009.55 1008.81 1007.96 1007.27 1006.59 1005.99 1005.29 1004.48 1003.69 1003.26 1002.73 1002.22 1001.75 1001.41 1001.27 1000.96 1001.13 1001.46 1001.68 1002.36 1002.85 1003.49 1003.99 1004.50 1005.37 1005.87
1019.45 1019.41 1018.65 1017.80 1016.90 1016.42 1016.05 1015.74 1014.87 1014.43 1014.54 1014.15 1013.73 1013.32 1012.53 1011.57 1010.91 1010.21 1009.13 1008.26 1007.37 1006.50 1005.72 1005.06 1004.27 1003.47 1002.67 1002.13 1001.53 1001.11 1000.70 1000.49 1000.42 1000.77 1000.93 1001.19 1001.87 1002.48 1003.33 1004.09 1004.51 1004.85 1005.69 1005.82
1018.86 1018.92 1018.62 1017.73 1017.33 1016.66 1015.60 1014.85 1014.45 1014.33 1014.05 1013.92 1013.26 1012.41 1011.94 1011.53 1010.56 1009.73 1008.77 1007.90 1006.91 1005.76 1004.77 1003.81 1002.94 1002.19 1001.30 1000.76 1000.30 1000.04 1000.00 1000.09 1000.33 1000.49 1000.71 1001.28 1002.15 1002.95 1003.74 1004.41 1005.49 1006.08 1006.07 1006.82
Wind_Speed
3 2 2 0 3 3 5 5 8 8 6 10 15 17 19 19 17 16 10 4 3 3 5 7 9 11 12 14 16 17 17 17 10 8 9 9 11 11 11 12 18 17 14 15
3 6 4 4 4 5 5 6 9 7 7 11 18 23 18 15 12 6 5 3 2 1 4 7 9 10 12 13 14 15 16 17 13 8 8 9 9 11 12 10 9 14 15 15
6 5 2 4 3 5 4 6 3 8 13 12 12 16 2 1 6 4 3 2 2 2 4 6 7 9 10 13 15 14 14 15 14 16 8 7 8 6 6 9 9 13 17 16
5 3 2 3 3 2 6 3 6 11 13 13 4 10 3 3 6 7 3 5 3 2 1 4 8 10 11 12 13 15 14 14 13 14 10 10 11 11 11 10 11 12 18 17
2 4 4 4 1 3 4 5 9 11 13 6 5 7 1 3 8 6 6 5 4 2 4 6 7 10 10 11 12 14 14 14 15 14 13 9 10 11 11 10 12 12 11 16
2 3 1 2 2 1 3 6 10 1 3 6 4 2 4 5 4 5 4 5 5 5 5 5 7 11 12 13 15 17 17 14 15 14 15 13 12 12 12 12 11 10 10 9
8 2 0 0 3 2 3 8 5 3 3 5 6 8 11 12 12 14 12 9 7 7 6 7 9 12 14 16 16 16 17 17 15 17 16 15 14 13 13 14 12 12 10 9
4 4 3 1 11 9 3 2 3 7 6 13 11 10 4 4 4 4 5 5 8 10 8 8 10 11 13 14 15 15 18 18 17 15 16 15 15 10 9 11 11 11 11 11
4 5 5 14 4 3 4 6 2 5 4 6 6 6 10 15 12 7 10 8 8 9 10 10 12 12 13 14 16 16 15 17 16 16 14 14 14 14 12 13 12 11 12 11
1 10 7 3 3 3 7 7 4 2 5 8 9 13 12 9 9 10 13 14 5 11 8 9 13 14 14 16 16 16 15 16 16 16 14 13 15 15 14 12 13 14 13 14
3 3 3 3 7 12 5 5 4 5 5 6 11 9 4 10 13 13 14 8 13 10 9 12 14 16 16 16 17 16 16 17 16 15 15 15 15 16 14 11 13 13 13 13
0 4 10 18 21 10 10 14 14 7 9 8 13 17 12 14 10 10 13 17 11 10 13 14 17 17 17 17 17 16 16 16 16 15 15 15 15 15 14 11 13 12 11 12
2 3 7 7 4 3 4 4 12 10 6 17 17 13 3 9 16 17 12 11 13 16 19 18 19 18 17 16 16 17 16 17 16 15 16 15 14 13 14 12 9 11 10 9
5 7 12 11 19 18 21 21 20 15 8 17 20 27 24 21 21 16 11 12 16 19 20 20 19 19 18 17 16 16 17 17 17 15 16 16 13 13 13 11 8 7 7 8
3 9 12 17 22 22 23 25 24 20 23 17 26 25 24 21 11 12 12 15 20 20 22 19 19 19 19 19 18 17 18 16 16 16 16 15 14 12 12 9 7 7 8 8
4 10 14 20 16 14 15 19 21 20 20 16 19 23 7 10 11 17 18 21 24 23 22 21 21 21 21 21 16 17 18 17 16 15 16 15 13 12 11 8 7 8 9 8
8 5 4 12 9 17 15 6 8 13 11 8 8 17 13 14 19 18 22 24 23 22 21 24 22 20 20 18 15 17 17 16 16 16 15 14 11 12 10 8 7 8 8 5
4 4 2 9 13 12 7 16 10 8 11 14 20 15 10 19 18 19 21 19 20 24 24 22 20 19 16 15 15 17 16 16 16 15 15 13 11 11 9 6 4 5 5 6
4 2 5 5 10 19 11 2 2 3 18 16 3 13 24 15 21 18 15 19 25 24 21 19 18 17 17 16 17 15 15 14 15 15 14 12 9 9 9 3 3 3 5 6
3 6 5 6 5 9 7 1 10 16 16 5 15 21 24 14 18 19 24 25 22 20 16 17 19 20 17 16 14 14 14 14 14 14 13 10 9 9 9 4 6 4 4 7
11 7 7 7 7 10 7 3 19 9 6 22 22 18 19 17 16 29 27 24 20 18 18 18 17 17 18 16 14 13 14 14 13 13 11 9 8 8 7 7 7 8 8 9
7 5 3 4 6 6 2 16 2 9 19 20 16 18 19 23 25 25 24 23 22 22 21 18 16 16 16 14 13 14 14 14 12 12 10 8 6 5 5 11 9 9 10 12
5 7 5 6 8 19 20 14 17 12 19 17 10 20 24 24 24 23 20 20 18 20 17 16 16 16 15 14 13 15 15 13 12 11 9 7 5 3 9 11 10 9 9 9
4 4 6 8 8 13 18 15 13 21 18 12 18 22 20 22 21 21 19 19 16 16 16 15 15 15 16 14 14 13 13 13 11 12 9 7 5 8 8 7 8 9 8 8
8 5 7 12 18 17 12 15 22 20 12 19 20 19 20 17 20 20 18 18 17 17 16 15 15 15 16 15 14 13 11 10 9 10 10 8 8 9 9 6 5 7 6 7
3 4 3 4 14 13 17 22 22 16 19 17 18 18 17 17 19 19 17 16 17 18 18 17 17 15 15 13 12 10 7 8 9 9 8 9 9 8 8 9 11 23 15 15
Wind_Direction
39 307 359 289 204 210 226 237 270 294 303 318 301 296 295 295 287 281 290 226 15 334 16 33 28 20 16 13 7 5 359 354 324 263 226 227 221 217 218 215 217 214 216 210
228 284 210 184 209 231 230 275 301 287 295 312 305 297 301 288 272 296 281 206 316 335 15 21 17 22 17 10 9 6 0 356 353 303 255 237 228 232 222 218 224 219 218 212
250 288 144 238 233 244 247 267 257 298 317 284 287 286 252 266 265 231 196 211 203 341 355 358 11 14 14 10 360 1 359 355 350 347 291 263 249 241 229 219 218 219 217 212
258 350 287 292 253 217 282 196 285 287 311 307 355 297 255 266 265 274 207 205 216 214 314 340 359 6 4 5 360 352 349 355 351 344 339 288 261 252 236 236 228 218 212 215
309 341 331 295 95 200 310 312 295 293 287 278 194 254 108 285 267 283 234 247 231 233 312 331 353 358 357 354 357 353 340 344 345 344 341 332 285 270 264 253 249 232 227 220
300 300 272 96 71 90 330 299 288 170 239 244 136 255 260 245 258 264 234 235 255 238 270 311 346 347 345 348 348 348 347 341 340 339 328 326 314 284 264 248 249 239 229 223
322 24 31 99 338 288 313 328 315 276 236 295 161 283 271 281 269 269 278 278 267 252 279 312 330 338 337 338 338 338 341 334 339 337 321 319 313 300 272 256 247 245 225 215
332 302 343 164 330 296 292 264 263 291 291 298 271 249 238 244 273 280 259 257 268 255 274 294 313 326 323 320 321 334 329 327 325 326 320 314 311 298 292 266 250 237 234 220
298 247 293 296 304 221 149 218 354 273 264 266 237 254 268 272 258 247 242 301 279 279 272 287 310 314 308 308 320 325 318 315 317 319 315 310 308 303 297 281 252 234 223 219
313 295 270 287 252 193 249 147 204 208 268 259 263 266 270 281 260 291 298 310 312 323 298 299 305 315 313 315 320 322 318 316 313 313 311 309 306 305 294 286 254 237 226 214
286 221 272 275 241 277 221 215 208 280 234 264 291 271 219 287 295 296 308 321 326 325 318 315 316 317 320 320 321 318 316 313 309 312 309 308 311 311 300 291 263 242 233 214
37 242 274 273 276 295 260 263 251 235 234 232 278 276 291 282 287 324 308 311 326 318 316 316 319 321 319 316 318 312 311 309 308 309 309 304 305 311 302 281 270 243 228 218
177 250 302 281 184 143 226 218 239 252 276 257 266 269 237 268 296 320 329 323 319 318 317 319 321 321 319 315 313 307 308 307 306 304 303 300 301 307 309 297 282 235 204 204
238 235 231 265 290 296 287 278 264 253 256 268 260 276 288 295 301 321 317 317 315 313 315 316 315 315 314 312 311 308 306 306 302 300 298 295 297 303 308 302 272 278 208 184
261 263 271 277 282 284 279 280 281 265 261 258 279 287 293 310 324 323 316 311 311 305 309 309 310 310 308 304 308 306 302 301 299 296 293 293 293 296 304 293 269 247 233 238
340 283 300 294 283 286 287 279 275 280 279 268 273 283 327 318 309 317 322 318 308 307 307 308 309 306 307 304 306 302 299 299 297 291 291 294 293 297 302 288 258 247 242 248
273 289 294 289 313 306 282 330 323 307 300 311 283 303 321 319 320 320 318 309 306 306 307 307 308 302 300 297 301 296 294 294 289 287 287 289 290 293 303 291 252 240 233 212
242 235 262 294 311 288 7 317 309 310 288 298 292 307 321 309 295 308 303 300 307 307 304 299 298 297 290 298 296 292 292 287 283 282 284 286 287 290 308 281 233 224 204 136
204 18 306 278 305 291 285 50 13 321 302 300 355 325 315 295 296 294 308 314 308 302 300 297 296 291 294 290 289 285 283 282 280 279 278 284 287 290 309 239 127 122 133 120
225 267 260 288 273 296 326 146 341 318 291 77 327 317 308 314 301 306 323 315 305 304 300 295 290 291 287 289 287 282 281 278 272 272 274 281 285 286 302 151 110 71 91 106
311 310 276 263 275 275 326 277 336 282 334 323 311 307 304 301 295 304 310 307 306 299 299 295 288 286 289 288 284 277 280 274 268 266 266 271 278 277 292 109 106 101 91 93
293 297 273 265 259 275 55 331 287 298 299 296 291 298 307 303 301 303 306 308 307 308 305 298 293 292 290 284 277 273 270 271 269 254 249 256 263 267 150 123 115 113 110 107
260 232 290 233 270 297 307 305 299 296 288 295 309 313 310 305 305 304 302 304 303 295 295 296 291 289 284 277 269 268 264 265 252 239 233 240 238 198 139 130 128 120 117 119
267 252 238 276 267 286 311 309 307 304 311 315 311 309 306 301 303 302 308 301 297 298 298 295 290 284 282 277 269 264 265 261 231 237 225 218 196 136 126 128 132 128 130 128
288 278 251 267 290 314 297 301 306 319 306 311 312 306 301 298 305 301 300 301 300 300 298 294 286 280 277 276 273 266 257 232 212 210 203 180 137 126 108 79 109 126 129 144
241 289 277 287 300 293 299 311 327 316 321 314 308 307 308 309 302 303 300 300 298 298 297 294 290 283 276 270 265 257 222 195 183 187 164 132 123 119 116 101 81 51 71 88